RH
45 50 50 50 50 49 48 46 46 48 51 62 74 78 78 81 81 79 77 74 73 80 85 81 79 81 80 79 80 83 87 90 90 88 76 61 58 57 54 53 52 50 48 46 46 43 41 42 44 44 45 44 44 46 45 46 47 44 43 46 47 47 47 48 52 54 53 52 53 52 50 48 46 44 42 43 45 45 44 43 43 44 44 45 45 45
44 48 48 49 51 50 49 48 47 48 52 59 68 75 77 78 80 78 75 73 70 76 84 81 78 80 81 80 81 82 85 87 89 89 81 65 59 57 53 53 53 50 50 48 45 43 42 41 42 42 42 41 42 45 44 44 46 43 41 44 45 45 46 48 51 54 54 54 55 55 52 50 47 45 42 42 44 44 42 43 44 44 44 44 44 44
43 44 44 47 51 51 49 48 46 47 52 56 59 66 72 73 77 79 74 73 72 77 84 81 77 80 81 80 81 84 85 86 88 90 85 71 62 58 53 52 54 53 52 49 44 42 42 40 40 40 40 39 40 45 44 42 44 43 40 41 44 44 45 47 49 51 55 55 57 58 57 54 50 47 45 45 46 44 43 45 45 46 46 45 45 46
42 40 40 45 50 50 48 48 46 46 48 52 51 55 63 65 71 77 74 72 74 79 83 81 80 80 80 80 81 86 90 89 89 91 88 79 69 62 56 53 54 53 51 49 45 42 41 39 38 38 38 38 38 42 43 41 43 43 40 39 44 44 43 46 47 48 54 57 59 61 59 58 54 50 49 48 47 46 45 46 47 48 48 47 47 48
36 35 36 42 48 49 48 47 46 46 46 49 47 47 57 61 63 67 66 65 71 77 78 80 84 81 78 82 81 84 92 93 92 93 91 86 77 68 60 56 55 53 50 49 46 42 39 37 36 37 37 38 37 38 40 40 42 43 40 38 42 44 43 45 45 46 52 55 59 62 60 59 59 54 50 49 48 46 45 46 47 48 49 49 49 49
30 29 31 38 45 47 47 46 46 47 45 47 46 46 55 59 58 62 61 63 72 77 74 75 82 80 78 84 82 81 89 93 95 95 93 89 83 74 65 59 56 53 50 50 48 43 39 36 36 36 37 36 35 33 35 38 41 42 41 38 40 43 43 43 44 45 49 51 55 61 61 60 61 58 51 49 48 46 44 46 47 48 49 49 49 49
27 26 26 31 39 44 46 46 46 46 45 47 46 45 54 58 58 59 58 64 73 76 73 71 75 76 75 80 83 83 85 89 94 95 93 92 87 77 68 62 58 54 50 50 50 46 40 37 36 36 36 35 33 31 31 34 38 40 41 39 38 40 43 42 42 44 48 50 52 57 59 59 61 59 54 50 48 47 46 45 46 47 48 49 49 50
24 25 25 26 31 38 43 46 45 43 44 47 45 47 55 58 57 55 55 63 70 72 75 72 70 73 74 75 81 86 87 86 90 93 93 93 88 79 71 66 60 55 51 49 50 47 41 39 36 35 36 34 32 32 31 31 33 35 38 39 37 37 40 42 41 42 45 48 50 53 56 57 59 60 57 53 50 49 48 46 45 47 47 48 49 49
22 23 25 24 25 30 36 42 43 41 42 45 46 52 56 56 57 55 55 63 70 74 79 76 69 71 74 74 77 85 88 86 87 90 92 92 87 79 73 69 62 58 56 51 49 47 43 40 36 34 35 35 33 32 31 30 29 31 34 37 38 37 38 40 40 40 42 44 46 49 51 53 55 57 57 56 53 50 48 47 46 47 49 50 50 50
20 21 23 23 22 24 29 36 39 37 40 44 48 55 56 55 59 62 64 70 75 78 79 77 72 71 74 74 75 82 84 81 81 85 88 88 85 80 76 72 65 62 60 54 49 48 43 40 38 36 36 36 35 34 32 31 30 29 30 34 38 38 38 38 39 39 39 41 42 45 47 49 50 53 55 56 56 53 51 48 46 48 52 53 52 51
20 19 20 20 20 21 24 30 32 35 39 43 51 55 55 59 66 70 72 75 80 80 76 77 76 72 74 73 72 75 72 69 74 82 87 88 87 83 80 76 69 65 63 55 51 50 45 42 42 40 38 37 37 36 34 32 31 29 29 31 36 38 38 38 38 39 39 39 40 42 44 46 47 49 51 52 54 55 54 52 48 49 54 55 54 54
19 18 18 18 17 18 21 24 27 32 37 41 50 53 58 71 77 75 73 75 81 79 73 75 77 75 75 71 68 69 65 62 69 79 85 86 85 84 83 80 73 68 65 59 54 53 49 47 46 44 41 40 39 37 34 33 32 30 29 30 33 36 37 37 38 39 38 39 39 40 42 44 46 48 48 48 50 53 54 54 52 51 55 57 56 56
19 17 16 16 16 17 19 23 24 29 33 41 51 55 64 79 81 76 73 74 77 75 71 73 76 77 75 68 65 66 66 63 65 73 82 83 82 83 84 83 78 73 69 63 59 56 52 50 49 49 47 45 43 39 36 35 32 30 29 29 31 33 34 34 36 38 37 37 38 38 39 41 44 46 46 46 48 51 52 53 53 52 54 56 56 56
19 17 16 14 16 16 18 21 22 25 30 38 49 55 64 76 80 79 76 72 71 70 72 75 77 78 73 65 64 64 63 63 63 69 77 81 82 82 84 86 83 80 74 68 63 60 56 52 51 52 51 49 48 43 40 38 35 32 30 29 29 30 30 30 31 34 35 35 36 37 38 39 41 43 44 44 45 47 49 51 52 51 51 53 54 54
22 20 17 15 16 16 17 18 20 23 26 33 44 51 56 64 70 74 71 68 68 68 72 77 78 77 71 64 64 63 61 61 62 66 72 78 81 83 86 88 87 84 78 71 65 61 59 56 53 53 52 52 51 47 43 41 39 35 33 31 29 28 27 26 27 29 31 33 35 36 37 39 39 40 41 42 42 44 45 47 49 49 48 49 51 53
25 23 18 15 16 16 16 17 19 22 24 29 40 47 49 51 55 61 62 60 63 71 78 79 74 72 69 64 63 63 62 60 61 64 69 75 80 83 86 88 88 85 80 74 69 65 63 61 59 58 55 54 55 53 48 43 41 38 35 33 31 30 28 26 26 26 27 30 33 35 36 38 40 40 41 40 40 40 41 42 45 47 48 48 49 51
27 25 21 16 16 16 17 18 18 20 22 27 35 41 42 41 44 52 56 54 57 69 77 77 73 73 69 65 64 65 64 62 61 63 68 73 76 81 85 87 88 85 81 80 76 73 69 66 66 65 61 59 59 58 54 49 44 41 38 35 33 33 32 29 27 27 27 27 29 31 33 35 38 40 41 40 38 39 39 40 42 44 47 49 49 49
29 26 24 19 17 17 17 18 19 18 21 25 29 31 33 35 40 47 55 58 59 65 72 75 77 77 72 68 66 66 66 63 62 64 67 69 70 77 83 86 87 86 84 84 83 81 78 73 71 69 67 65 64 63 61 57 52 47 44 41 38 37 35 32 30 29 28 27 25 25 27 30 34 37 39 40 39 39 39 40 41 42 44 48 49 48
29 28 27 22 20 19 18 19 21 19 20 23 24 25 29 35 39 41 50 59 61 67 76 78 78 77 73 71 69 69 68 66 65 67 67 66 67 73 78 80 83 84 84 85 85 84 83 81 77 73 72 71 69 69 67 64 60 56 53 49 47 44 41 38 34 30 29 28 25 22 22 25 29 32 36 39 40 40 40 40 41 41 42 44 46 46
31 30 29 26 22 21 21 21 23 21 20 22 24 24 26 33 38 38 43 52 60 70 76 75 77 77 72 71 71 70 68 67 67 67 67 67 68 72 75 76 80 82 82 84 86 85 85 85 83 78 75 74 73 72 71 70 67 63 59 58 57 55 51 48 43 36 30 28 27 25 22 23 25 28 30 34 36 38 38 39 39 40 41 42 43 44
33 31 31 29 26 24 24 23 24 24 22 22 24 25 25 28 32 38 43 47 57 68 71 71 75 75 70 69 70 69 67 66 67 67 68 69 70 72 74 75 77 81 81 82 84 85 86 86 85 82 77 75 75 75 73 73 72 69 66 65 66 67 65 59 53 48 42 36 33 30 27 24 23 25 27 29 31 33 35 36 37 39 41 41 42 43
35 34 33 32 27 25 25 24 24 25 24 24 24 25 28 29 31 39 45 47 53 60 62 64 69 70 68 67 67 66 66 66 67 68 69 71 71 72 74 75 77 80 81 82 82 83 83 84 85 83 79 76 76 76 75 74 74 73 73 72 71 73 76 73 65 59 54 49 44 39 34 31 28 27 27 28 28 29 31 34 36 37 39 40 41 42
40 40 39 36 31 28 27 25 27 28 27 26 25 27 31 31 33 41 46 48 53 56 55 57 60 64 67 67 65 64 65 66 68 70 71 73 73 72 73 74 76 79 81 82 83 84 85 86 86 83 79 77 76 77 77 77 77 77 77 77 75 75 78 81 78 72 65 59 55 51 45 40 35 32 30 29 28 28 29 32 34 35 35 36 39 40
47 48 47 43 38 34 31 29 28 28 28 27 27 29 32 32 35 42 45 50 56 57 56 55 57 62 65 65 64 64 65 67 68 69 72 75 76 74 73 74 75 77 79 80 82 84 86 88 87 84 81 78 77 78 80 81 81 81 80 80 79 79 79 81 82 81 75 67 64 62 58 52 46 39 34 32 31 30 30 31 32 33 34 34 35 37
50 55 55 49 41 37 38 38 33 28 29 29 28 29 32 37 41 44 48 54 59 60 56 50 52 58 60 60 62 62 64 67 68 69 70 74 76 76 75 74 73 75 78 79 79 81 83 85 85 84 83 80 79 81 82 83 83 83 82 80 79 80 81 80 81 81 79 76 74 72 69 65 60 52 43 37 34 32 32 32 33 33 34 34 33 33
53 58 59 55 52 49 47 46 39 32 30 30 28 28 31 38 43 46 50 56 58 60 58 50 50 55 54 55 58 59 61 64 67 68 69 71 74 76 76 75 73 73 75 76 77 77 79 80 80 82 85 86 85 85 85 84 83 83 83 81 79 81 81 81 81 82 81 80 81 80 78 74 70 65 56 47 41 37 34 34 34 34 34 35 34 32
58 59 58 57 57 54 50 50 47 39 33 31 30 29 30 36 42 47 51 52 54 60 62 56 54 54 52 52 54 54 55 58 61 65 66 67 69 73 75 75 74 73 73 76 79 78 78 79 78 80 83 85 86 86 85 82 80 80 81 81 81 82 82 82 83 84 83 82 83 84 83 78 75 72 66 57 49 44 40 37 35 35 36 36 35 33
62 61 59 56 52 49 48 50 49 43 36 33 33 31 32 36 41 44 47 49 52 58 62 61 58 56 54 51 49 50 51 51 55 60 62 61 62 67 72 72 72 71 71 73 75 75 76 78 78 80 82 82 82 84 83 80 77 77 80 82 82 82 83 84 84 84 85 84 85 87 85 81 80 77 71 65 59 53 46 41 40 39 38 38 36 35
63 64 62 57 50 48 48 47 47 45 40 36 35 33 34 38 41 43 47 51 52 54 58 61 61 59 57 53 48 47 47 48 52 57 58 58 59 64 68 69 68 68 67 67 67 69 71 73 73 75 80 83 82 82 81 80 79 79 81 83 83 82 82 83 83 84 86 87 90 91 87 83 84 83 79 74 71 66 56 47 45 45 43 42 38 36
61 65 66 61 52 49 49 48 47 47 44 40 38 35 35 40 44 46 50 53 55 57 59 61 62 61 58 54 49 47 48 51 54 56 57 57 60 64 66 67 66 66 65 65 65 66 67 68 67 68 72 78 82 83 82 81 81 81 81 82 82 82 81 82 82 83 85 87 89 90 88 86 87 87 84 81 80 77 71 63 57 55 53 49 43 39
56 61 68 66 58 53 51 49 47 46 45 44 42 39 38 41 42 44 49 53 57 61 61 60 62 62 55 51 50 50 52 54 57 58 58 59 62 65 66 66 66 65 65 65 65 66 65 64 64 63 65 70 76 79 80 80 82 82 80 79 78 80 82 83 83 84 85 86 86 87 88 89 89 87 86 86 84 82 80 75 72 71 67 61 55 49
54 59 66 66 61 56 52 50 48 47 45 43 43 43 44 46 45 45 50 55 56 59 59 58 61 62 56 51 53 56 56 57 60 61 61 62 65 66 66 66 66 65 66 64 64 65 64 63 65 66 65 67 70 73 75 76 79 82 82 79 77 79 83 85 84 84 84 84 85 86 86 86 88 88 87 89 87 84 80 77 79 82 80 74 70 64
55 59 61 61 59 57 56 53 49 49 50 49 50 50 48 48 49 48 51 54 53 54 58 61 63 64 61 56 56 59 60 61 64 65 66 69 69 67 66 66 65 65 66 64 62 63 64 65 68 69 67 67 69 71 73 74 77 79 81 80 77 78 83 85 85 83 81 82 83 84 85 85 87 89 90 89 86 83 80 77 80 85 84 81 79 74
54 57 59 60 59 60 62 58 53 58 62 59 57 56 53 51 52 51 51 51 51 52 58 63 62 63 64 61 60 62 64 67 70 70 71 73 72 69 66 64 62 62 63 64 64 66 69 70 70 70 68 68 69 70 72 74 75 77 78 78 78 80 83 84 84 82 80 81 82 82 84 85 86 87 89 88 85 84 82 79 81 85 84 83 81 78
49 52 56 60 58 61 65 63 63 69 68 60 57 58 54 51 51 52 51 49 50 52 55 57 57 58 61 63 64 66 68 71 74 73 73 74 73 70 67 62 58 55 56 61 64 68 70 70 70 70 69 69 69 71 72 73 75 77 78 78 79 82 83 83 84 84 81 78 78 79 82 85 86 87 88 88 89 88 85 81 81 84 86 85 83 80
44 48 53 55 55 59 63 63 67 70 65 62 62 60 54 50 49 55 58 56 55 56 53 50 52 55 58 61 65 68 70 71 71 71 72 72 71 70 65 60 56 54 55 60 63 64 64 67 70 71 71 70 69 69 69 71 75 77 78 79 79 81 82 81 84 85 82 78 77 78 81 84 85 85 86 85 86 86 84 83 83 85 86 85 83 79
42 44 46 47 49 55 59 60 64 64 62 64 65 61 57 52 48 55 66 67 65 63 56 51 51 55 59 63 65 68 71 71 70 69 68 70 70 68 63 58 55 57 60 63 64 63 64 69 72 72 71 71 68 65 63 66 72 76 78 79 80 81 81 80 79 79 80 81 80 79 81 84 84 82 82 81 80 80 81 83 84 84 84 84 83 82
42 41 41 43 46 51 57 61 63 64 65 66 64 60 58 53 49 53 63 67 67 65 61 59 59 59 61 64 66 68 70 70 70 68 65 66 70 67 62 59 57 57 59 62 64 64 65 70 73 73 72 69 65 63 61 61 65 70 73 76 77 79 81 80 77 76 78 82 82 79 79 81 81 79 77 76 75 74 75 77 79 80 80 80 79 80
41 43 44 45 47 50 54 57 59 62 64 66 65 61 57 53 50 50 53 57 58 58 58 61 64 64 64 66 67 68 69 70 71 68 64 66 68 65 61 60 59 56 55 56 60 62 65 68 69 70 71 68 65 64 62 61 61 62 65 68 70 72 76 77 75 73 73 78 81 78 75 74 73 71 69 67 66 65 64 66 69 72 73 71 71 73
40 43 43 43 47 52 52 50 52 57 60 60 60 60 58 53 50 51 52 54 55 56 55 56 60 63 66 69 71 71 72 74 74 70 68 69 69 65 62 61 58 56 54 53 57 63 65 67 67 67 67 67 66 65 64 63 63 61 61 62 63 65 68 68 69 68 67 68 73 73 71 67 65 64 64 63 61 58 57 58 60 63 66 67 68 70
40 42 41 42 46 48 44 41 43 50 54 54 53 54 54 53 54 56 57 55 55 58 56 53 55 59 62 67 72 75 75 76 76 75 73 72 70 67 66 63 60 58 55 53 56 63 67 68 69 69 67 66 66 66 64 63 63 61 60 59 59 62 62 62 64 66 64 63 64 65 65 62 60 60 61 60 59 56 54 53 53 53 55 57 58 61
32 34 36 39 39 40 41 40 41 45 49 49 48 47 46 48 53 57 56 53 53 57 56 54 56 60 62 66 70 73 73 71 72 73 72 70 68 68 67 65 62 59 57 54 55 61 65 66 67 68 66 65 65 64 63 63 61 59 58 56 55 57 58 58 60 61 62 62 61 61 61 60 58 58 57 57 55 53 51 49 48 47 46 46 47 50
27 27 30 33 32 33 39 40 39 42 46 47 47 46 45 46 50 53 54 53 52 54 55 57 59 61 63 64 64 66 70 72 73 73 70 67 66 66 66 67 64 62 60 57 55 60 63 62 61 60 60 61 61 60 60 61 60 57 53 50 49 50 51 52 53 53 54 55 56 56 56 57 56 57 57 55 53 51 49 48 47 45 44 43 42 42
31 28 29 32 32 32 35 36 35 38 42 45 46 47 48 49 48 47 49 51 51 52 55 60 63 64 64 61 59 60 65 70 72 74 73 70 66 63 64 66 65 65 63 59 56 59 62 61 57 54 52 52 54 54 54 55 55 53 50 48 46 45 45 44 43 42 43 43 43 43 43 44 46 46 47 47 46 45 45 45 44 44 42 41 39 38
35 32 31 34 34 33 33 35 35 33 34 36 37 39 42 44 45 45 45 46 47 49 52 57 63 66 65 60 56 57 61 65 67 68 68 67 66 64 63 65 67 69 67 62 59 60 62 63 61 57 52 50 50 50 51 51 52 51 50 50 48 46 43 41 38 37 37 35 35 34 33 33 33 32 32 33 33 34 35 36 36 36 36 35 35 34
39 36 34 34 34 34 33 33 34 33 32 32 31 31 32 33 35 39 41 42 43 45 47 51 56 62 64 61 56 55 58 62 65 64 62 59 59 59 59 61 67 71 70 67 64 62 62 63 62 58 54 50 47 46 48 50 51 52 53 52 51 49 45 42 40 38 38 36 35 33 31 30 29 28 28 27 27 27 27 28 29 30 30 31 32 32
41 39 38 37 37 37 36 35 36 36 35 34 32 32 31 29 28 30 31 34 37 40 43 47 51 56 60 61 61 62 63 63 62 62 61 59 58 57 56 61 68 71 70 67 65 64 64 63 63 60 54 48 44 42 44 45 46 48 50 52 53 52 50 47 44 42 41 40 38 36 33 31 30 29 28 27 26 25 25 25 25 26 27 29 31 33
42 39 41 41 40 38 36 35 36 37 36 36 35 35 34 32 31 29 28 28 29 32 37 42 47 52 56 58 60 66 70 69 64 63 63 65 66 64 62 64 69 70 68 66 66 65 64 63 64 61 54 48 44 41 42 44 43 43 44 46 49 51 51 50 48 46 44 43 42 40 38 35 33 31 30 29 27 27 26 26 26 28 29 30 31 31
40 39 41 42 42 40 37 35 35 36 37 37 36 35 36 35 35 34 32 31 29 29 32 35 40 46 52 54 56 59 63 64 65 65 65 65 67 66 65 67 70 72 71 70 69 67 65 64 64 63 57 54 52 47 44 44 43 41 39 40 41 43 44 45 45 45 44 43 42 41 40 39 37 35 33 31 30 30 29 29 29 29 31 31 31 31
40 42 43 41 41 41 38 35 34 35 36 36 35 35 36 36 36 36 36 36 35 33 33 34 35 39 43 48 51 53 55 58 62 66 66 65 65 65 65 67 70 75 78 79 77 75 73 70 67 64 60 59 59 57 54 50 46 42 39 37 37 38 37 38 39 40 41 41 40 40 40 39 38 37 35 33 32 31 31 31 31 30 30 30 31 31
41 42 42 40 40 39 35 32 31 31 33 33 33 34 34 35 36 36 36 37 37 37 36 36 36 38 39 41 43 45 48 51 55 59 61 62 63 64 64 64 66 71 77 80 80 80 80 77 73 67 62 59 59 59 58 54 48 43 40 37 36 35 35 36 36 36 37 38 39 39 39 38 37 35 34 33 32 31 30 30 31 31 30 30 29 29